Time,TemperatureF,DewpointF,PressureIn,WindDirection,WindDirectionDegrees,WindSpeedMPH,WindSpeedGustMPH,Humidity,HourlyPrecipIn,Conditions,Clouds,dailyrainin,SoftwareType,DateUTC
2013-05-06 00:02:00,58.8,46.2,30.09,SW,233,0.0,5.0,63,0.00,CLR,,0.00,WeatherDisplay:10.37,2013-05-05 14:02:00,
2013-05-06 00:07:00,58.8,46.2,30.10,WSW,246,0.0,5.0,63,0.00,CLR,,0.00,WeatherDisplay:10.37,2013-05-05 14:07:00,
2013-05-06 00:12:00,58.8,46.2,30.10,WSW,244,0.0,5.0,63,0.00,CLR,,0.00,WeatherDisplay:10.37,2013-05-05 14:12:00,
2013-05-06 00:17:00,58.8,46.2,30.10,SW,236,0.0,4.0,63,0.00,CLR,,0.00,WeatherDisplay:10.37,2013-05-05 14:17:00,
2013-05-06 00:22:00,58.8,46.2,30.10,WSW,245,1.0,7.0,63,0.00,CLR,,0.00,WeatherDisplay:10.37,2013-05-05 14:22:00,
2013-05-06 00:27:00,58.6,46.1,30.10,WSW,241,0.0,4.0,63,0.00,CLR,,0.00,WeatherDisplay:10.37,2013-05-05 14:27:00,
2013-05-06 00:32:00,58.6,46.5,30.10,SW,227,0.0,5.0,64,0.00,CLR,,0.00,WeatherDisplay:10.37,2013-05-05 14:32:00,
2013-05-06 00:37:00,58.6,46.5,30.09,SW,224,1.0,3.0,64,0.00,CLR,,0.00,WeatherDisplay:10.37,2013-05-05 14:37:00,
2013-05-06 00:42:00,58.6,46.5,30.09,SW,236,2.0,6.0,64,0.00,CLR,,0.00,WeatherDisplay:10.37,2013-05-05 14:42:00,
2013-05-06 00:47:00,58.6,46.5,30.09,West,265,0.0,6.0,64,0.00,CLR,,0.00,WeatherDisplay:10.37,2013-05-05 14:47:00,
2013-05-06 00:52:00,58.5,46.4,30.09,WSW,238,3.0,8.0,64,0.00,CLR,,0.00,WeatherDisplay:10.37,2013-05-05 14:52:00,
2013-05-06 00:57:00,58.4,46.3,30.09,SW,229,6.0,8.0,64,0.00,CLR,,0.00,WeatherDisplay:10.37,2013-05-05 14:57:00,
2013-05-06 01:02:00,58.3,46.2,30.09,SW,236,1.0,10.0,64,0.00,CLR,,0.00,WeatherDisplay:10.37,2013-05-05 15:02:00,
2013-05-06 01:07:00,58.3,46.2,30.09,SW,225,5.0,10.0,64,0.00,CLR,,0.00,WeatherDisplay:10.37,2013-05-05 15:07:00,
2013-05-06 01:12:00,58.3,46.2,30.09,WSW,240,3.0,5.0,64,0.00,CLR,,0.00,WeatherDisplay:10.37,2013-05-05 15:12:00,
2013-05-06 01:17:00,58.2,46.1,30.09,SW,232,3.0,8.0,64,0.00,CLR,,0.00,WeatherDisplay:10.37,2013-05-05 15:17:00,
2013-05-06 01:22:00,58.1,46.0,30.09,SW,217,5.0,8.0,64,0.00,CLR,,0.00,WeatherDisplay:10.37,2013-05-05 15:22:00,
2013-05-06 01:27:00,58.1,46.0,30.09,SW,230,1.0,8.0,64,0.00,CLR,,0.00,WeatherDisplay:10.37,2013-05-05 15:27:00,
2013-05-06 01:32:00,58.0,46.3,30.09,WSW,242,3.0,7.0,65,0.00,CLR,,0.00,WeatherDisplay:10.37,2013-05-05 15:32:00,
2013-05-06 01:37:00,57.9,46.2,30.09,SW,225,2.0,11.0,65,0.00,CLR,,0.00,WeatherDisplay:10.37,2013-05-05 15:37:00,
2013-05-06 01:42:00,57.9,46.2,30.09,SW,222,2.0,8.0,65,0.00,CLR,,0.00,WeatherDisplay:10.37,2013-05-05 15:42:00,
2013-05-06 01:47:00,57.9,46.2,30.09,SW,225,1.0,7.0,65,0.00,CLR,,0.00,WeatherDisplay:10.37,2013-05-05 15:47:00,
2013-05-06 01:52:00,57.9,46.2,30.09,SW,225,1.0,7.0,65,0.00,CLR,,0.00,WeatherDisplay:10.37,2013-05-05 15:52:00,
2013-05-06 01:57:00,57.9,46.2,30.09,SW,227,3.0,7.0,65,0.00,CLR,,0.00,WeatherDisplay:10.37,2013-05-05 15:57:00,
2013-05-06 02:02:00,57.9,46.2,30.09,SW,221,2.0,7.0,65,0.00,CLR,,0.00,WeatherDisplay:10.37,2013-05-05 16:02:00,
2013-05-06 02:07:00,57.9,46.6,30.09,SW,221,3.0,7.0,66,0.00,CLR,,0.00,WeatherDisplay:10.37,2013-05-05 16:07:00,
2013-05-06 02:12:00,57.9,46.6,30.09,SW,223,2.0,8.0,66,0.00,CLR,,0.00,WeatherDisplay:10.37,2013-05-05 16:12:00,
2013-05-06 02:17:00,57.9,46.6,30.09,SW,225,1.0,10.0,66,0.00,CLR,,0.00,WeatherDisplay:10.37,2013-05-05 16:17:00,
2013-05-06 02:22:00,57.9,46.6,30.09,SW,219,3.0,6.0,66,0.00,CLR,,0.00,WeatherDisplay:10.37,2013-05-05 16:22:00,
2013-05-06 02:27:00,57.9,46.6,30.08,SSW,213,3.0,7.0,66,0.00,CLR,,0.00,WeatherDisplay:10.37,2013-05-05 16:27:00,
2013-05-06 02:32:00,57.7,46.5,30.09,SW,217,5.0,7.0,66,0.00,CLR,,0.00,WeatherDisplay:10.37,2013-05-05 16:32:00,
2013-05-06 02:37:00,57.7,46.5,30.09,SW,223,5.0,10.0,66,0.00,CLR,,0.00,WeatherDisplay:10.37,2013-05-05 16:37:00,
2013-05-06 02:42:00,57.7,46.4,30.08,SW,223,0.0,9.0,66,0.00,CLR,,0.00,WeatherDisplay:10.37,2013-05-05 16:42:00,
2013-05-06 02:47:00,57.6,46.3,30.08,SW,226,0.0,5.0,66,0.00,CLR,,0.00,WeatherDisplay:10.37,2013-05-05 16:47:00,
2013-05-06 02:52:00,57.4,46.6,30.08,SW,221,2.0,5.0,67,0.00,CLR,,0.00,WeatherDisplay:10.37,2013-05-05 16:52:00,
2013-05-06 02:57:00,57.4,46.5,30.08,SW,226,2.0,9.0,67,0.00,CLR,,0.00,WeatherDisplay:10.37,2013-05-05 16:57:00,
2013-05-06 03:02:00,57.4,46.5,30.09,WSW,239,3.0,10.0,67,0.00,CLR,,0.00,WeatherDisplay:10.37,2013-05-05 17:02:00,
2013-05-06 03:07:00,57.4,46.5,30.09,WSW,243,1.0,10.0,67,0.00,CLR,,0.00,WeatherDisplay:10.37,2013-05-05 17:07:00,
2013-05-06 03:12:00,57.4,46.5,30.09,SW,230,1.0,8.0,67,0.00,CLR,,0.00,WeatherDisplay:10.37,2013-05-05 17:12:00,
2013-05-06 03:17:00,57.4,46.5,30.09,SW,223,1.0,8.0,67,0.00,CLR,,0.00,WeatherDisplay:10.37,2013-05-05 17:17:00,
2013-05-06 03:22:00,57.2,46.3,30.09,SW,233,1.0,5.0,67,0.00,CLR,,0.00,WeatherDisplay:10.37,2013-05-05 17:22:00,
2013-05-06 03:27:00,57.0,46.2,30.08,WSW,237,0.0,4.0,67,0.00,CLR,,0.00,WeatherDisplay:10.37,2013-05-05 17:27:00,
2013-05-06 03:32:00,57.0,46.2,30.08,SW,226,0.0,4.0,67,0.00,CLR,,0.00,WeatherDisplay:10.37,2013-05-05 17:32:00,
2013-05-06 03:37:00,57.0,46.2,30.08,SW,236,0.0,5.0,67,0.00,CLR,,0.00,WeatherDisplay:10.37,2013-05-05 17:37:00,
2013-05-06 03:42:00,57.0,46.2,30.08,WSW,240,1.0,3.0,67,0.00,CLR,,0.00,WeatherDisplay:10.37,2013-05-05 17:42:00,
2013-05-06 03:47:00,57.0,46.2,30.08,SW,226,2.0,5.0,67,0.00,CLR,,0.00,WeatherDisplay:10.37,2013-05-05 17:47:00,
2013-05-06 03:52:00,57.0,46.2,30.09,SW,220,3.0,6.0,67,0.00,CLR,,0.00,WeatherDisplay:10.37,2013-05-05 17:52:00,
2013-05-06 03:57:00,57.0,46.2,30.09,SW,220,1.0,5.0,67,0.00,CLR,,0.00,WeatherDisplay:10.37,2013-05-05 17:57:00,
2013-05-06 04:02:00,57.0,46.2,30.09,SW,224,2.0,5.0,67,0.00,CLR,,0.00,WeatherDisplay:10.37,2013-05-05 18:02:00,
2013-05-06 04:07:00,57.0,46.2,30.08,SW,232,2.0,10.0,67,0.00,CLR,,0.00,WeatherDisplay:10.37,2013-05-05 18:07:00,
2013-05-06 04:12:00,57.0,46.2,30.09,SW,223,1.0,7.0,67,0.00,CLR,,0.00,WeatherDisplay:10.37,2013-05-05 18:12:00,
2013-05-06 04:17:00,56.8,46.0,30.09,SW,218,0.0,6.0,67,0.00,CLR,,0.00,WeatherDisplay:10.37,2013-05-05 18:17:00,
2013-05-06 04:22:00,56.8,46.4,30.09,SW,225,0.0,4.0,68,0.00,CLR,,0.00,WeatherDisplay:10.37,2013-05-05 18:22:00,
2013-05-06 04:27:00,56.8,46.4,30.09,SW,228,2.0,6.0,68,0.00,CLR,,0.00,WeatherDisplay:10.37,2013-05-05 18:27:00,
2013-05-06 04:32:00,56.8,46.4,30.09,SW,222,2.0,5.0,68,0.00,CLR,,0.00,WeatherDisplay:10.37,2013-05-05 18:32:00,
2013-05-06 04:37:00,56.8,46.4,30.10,SW,221,1.0,4.0,68,0.00,CLR,,0.00,WeatherDisplay:10.37,2013-05-05 18:37:00,
2013-05-06 04:42:00,56.8,46.4,30.10,SSW,212,0.0,3.0,68,0.00,CLR,,0.00,WeatherDisplay:10.37,2013-05-05 18:42:00,
2013-05-06 04:47:00,56.8,46.4,30.10,SSW,213,1.0,5.0,68,0.00,CLR,,0.00,WeatherDisplay:10.37,2013-05-05 18:47:00,
2013-05-06 04:52:00,56.8,46.4,30.10,SW,222,1.0,6.0,68,0.00,CLR,,0.00,WeatherDisplay:10.37,2013-05-05 18:52:00,
2013-05-06 04:57:00,56.8,46.4,30.10,SW,232,1.0,4.0,68,0.00,CLR,,0.00,WeatherDisplay:10.37,2013-05-05 18:57:00,
2013-05-06 05:02:00,56.7,46.2,30.10,SW,225,0.0,5.0,68,0.00,CLR,,0.00,WeatherDisplay:10.37,2013-05-05 19:02:00,
2013-05-06 05:07:00,56.7,46.2,30.10,SW,216,2.0,6.0,68,0.00,CLR,,0.00,WeatherDisplay:10.37,2013-05-05 19:07:00,
2013-05-06 05:12:00,56.7,46.2,30.10,SW,221,1.0,5.0,68,0.00,CLR,,0.00,WeatherDisplay:10.37,2013-05-05 19:12:00,
2013-05-06 05:17:00,56.5,46.0,30.11,SSW,211,5.0,8.0,68,0.00,CLR,,0.00,WeatherDisplay:10.37,2013-05-05 19:17:00,
2013-05-06 05:22:00,56.5,46.0,30.10,SSW,208,5.0,8.0,68,0.00,CLR,,0.00,WeatherDisplay:10.37,2013-05-05 19:22:00,
2013-05-06 05:27:00,56.5,46.4,30.10,SW,217,5.0,8.0,69,0.00,CLR,,0.00,WeatherDisplay:10.37,2013-05-05 19:27:00,
2013-05-06 05:32:00,56.5,46.4,30.11,SW,215,5.0,9.0,69,0.00,CLR,,0.00,WeatherDisplay:10.37,2013-05-05 19:32:00,
2013-05-06 05:37:00,56.5,46.4,30.10,SW,215,3.0,8.0,69,0.00,CLR,,0.00,WeatherDisplay:10.37,2013-05-05 19:37:00,
2013-05-06 05:42:00,56.5,46.4,30.10,SW,215,5.0,10.0,69,0.00,CLR,,0.00,WeatherDisplay:10.37,2013-05-05 19:42:00,
2013-05-06 05:47:00,56.5,46.4,30.11,SSW,210,5.0,8.0,69,0.00,CLR,,0.00,WeatherDisplay:10.37,2013-05-05 19:47:00,
2013-05-06 05:52:00,56.5,46.4,30.11,SSW,208,3.0,8.0,69,0.00,CLR,,0.00,WeatherDisplay:10.37,2013-05-05 19:52:00,
2013-05-06 05:57:00,56.5,46.4,30.11,SSW,210,3.0,8.0,69,0.00,CLR,,0.00,WeatherDisplay:10.37,2013-05-05 19:57:00,
2013-05-06 06:02:00,56.5,46.4,30.11,SW,216,5.0,7.0,69,0.00,CLR,,0.00,WeatherDisplay:10.37,2013-05-05 20:02:00,
2013-05-06 06:07:00,56.3,46.3,30.11,SW,217,2.0,8.0,69,0.00,CLR,,0.00,WeatherDisplay:10.37,2013-05-05 20:07:00,
2013-05-06 06:12:00,56.3,46.3,30.11,SW,215,6.0,9.0,69,0.00,CLR,,0.00,WeatherDisplay:10.37,2013-05-05 20:12:00,
2013-05-06 06:17:00,56.3,46.6,30.12,SW,221,3.0,8.0,70,0.00,CLR,,0.00,WeatherDisplay:10.37,2013-05-05 20:17:00,
2013-05-06 06:22:00,56.1,46.5,30.12,SW,222,7.0,11.0,70,0.00,CLR,,0.00,WeatherDisplay:10.37,2013-05-05 20:22:00,
2013-05-06 06:27:00,56.1,46.5,30.12,SW,225,2.0,10.0,70,0.00,CLR,,0.00,WeatherDisplay:10.37,2013-05-05 20:27:00,
2013-05-06 06:32:00,56.1,46.5,30.13,SW,222,2.0,7.0,70,0.00,CLR,,0.00,WeatherDisplay:10.37,2013-05-05 20:32:00,
2013-05-06 06:37:00,56.1,46.5,30.13,SW,222,2.0,7.0,70,0.00,CLR,,0.00,WeatherDisplay:10.37,2013-05-05 20:37:00,
2013-05-06 06:42:00,56.1,46.5,30.13,SW,220,1.0,6.0,70,0.00,CLR,,0.00,WeatherDisplay:10.37,2013-05-05 20:42:00,
2013-05-06 06:52:00,55.9,46.3,30.13,SW,219,3.0,9.0,70,0.00,CLR,,0.00,WeatherDisplay:10.37,2013-05-05 20:52:00,
2013-05-06 06:57:00,55.9,46.3,30.14,SW,224,2.0,5.0,70,0.00,CLR,,0.00,WeatherDisplay:10.37,2013-05-05 20:57:00,
2013-05-06 07:02:00,56.1,46.4,30.14,SW,224,1.0,6.0,70,0.00,CLR,,0.00,WeatherDisplay:10.37,2013-05-05 21:02:00,
2013-05-06 07:07:00,56.1,46.4,30.14,SW,226,1.0,6.0,70,0.00,CLR,,0.00,WeatherDisplay:10.37,2013-05-05 21:07:00,
2013-05-06 07:12:00,56.1,46.5,30.14,WSW,237,1.0,5.0,70,0.00,CLR,,0.00,WeatherDisplay:10.37,2013-05-05 21:12:00,
2013-05-06 07:17:00,56.2,46.6,30.14,WSW,240,0.0,7.0,70,0.00,CLR,,0.00,WeatherDisplay:10.37,2013-05-05 21:17:00,
2013-05-06 07:22:00,56.4,46.7,30.15,SW,235,0.0,2.0,70,0.00,CLR,,0.00,WeatherDisplay:10.37,2013-05-05 21:22:00,
2013-05-06 07:27:00,56.5,46.8,30.14,SW,227,0.0,2.0,70,0.00,CLR,,0.00,WeatherDisplay:10.37,2013-05-05 21:27:00,
2013-05-06 07:32:00,56.5,46.8,30.14,SW,226,0.0,5.0,70,0.00,CLR,,0.00,WeatherDisplay:10.37,2013-05-05 21:32:00,
2013-05-06 07:37:00,56.8,47.2,30.14,SW,228,1.0,6.0,70,0.00,CLR,,0.00,WeatherDisplay:10.37,2013-05-05 21:37:00,
2013-05-06 07:42:00,57.0,47.7,30.14,SW,220,1.0,6.0,71,0.00,CLR,,0.00,WeatherDisplay:10.37,2013-05-05 21:42:00,
2013-05-06 07:47:00,57.4,48.0,30.15,SW,235,1.0,8.0,71,0.00,CLR,,0.00,WeatherDisplay:10.37,2013-05-05 21:47:00,
2013-05-06 07:52:00,57.6,48.2,30.15,WSW,244,1.0,8.0,71,0.00,CLR,,0.00,WeatherDisplay:10.37,2013-05-05 21:52:00,
2013-05-06 07:57:00,57.8,48.5,30.15,SSW,211,0.0,10.0,71,0.00,CLR,,0.00,WeatherDisplay:10.37,2013-05-05 21:57:00,
2013-05-06 08:02:00,58.1,48.4,30.15,SSW,202,1.0,3.0,70,0.00,CLR,,0.00,WeatherDisplay:10.37,2013-05-05 22:02:00,
2013-05-06 08:07:00,58.6,48.8,30.15,SW,217,0.0,6.0,70,0.00,CLR,,0.00,WeatherDisplay:10.37,2013-05-05 22:07:00,
2013-05-06 08:12:00,58.8,49.1,30.16,SW,218,0.0,4.0,70,0.00,CLR,,0.00,WeatherDisplay:10.37,2013-05-05 22:12:00,
2013-05-06 08:17:00,59.4,49.6,30.16,SW,229,0.0,4.0,70,0.00,CLR,,0.00,WeatherDisplay:10.37,2013-05-05 22:17:00,
2013-05-06 08:22:00,59.7,49.5,30.16,SW,227,0.0,2.0,69,0.00,CLR,,0.00,WeatherDisplay:10.37,2013-05-05 22:22:00,
2013-05-06 08:27:00,60.2,50.0,30.16,SW,220,1.0,7.0,69,0.00,CLR,,0.00,WeatherDisplay:10.37,2013-05-05 22:27:00,
2013-05-06 08:32:00,60.6,50.4,30.17,SSW,213,0.0,4.0,69,0.00,CLR,,0.00,WeatherDisplay:10.37,2013-05-05 22:32:00,
2013-05-06 08:37:00,61.1,50.8,30.17,SSW,206,0.0,8.0,69,0.00,CLR,,0.00,WeatherDisplay:10.37,2013-05-05 22:37:00,
2013-05-06 08:42:00,61.6,50.9,30.17,SSW,204,0.0,4.0,68,0.00,CLR,,0.00,WeatherDisplay:10.37,2013-05-05 22:42:00,
2013-05-06 08:47:00,62.2,51.5,30.17,SSW,213,2.0,5.0,68,0.00,CLR,,0.00,WeatherDisplay:10.37,2013-05-05 22:47:00,
2013-05-06 08:52:00,62.4,51.3,30.17,SSW,210,2.0,8.0,67,0.00,CLR,,0.00,WeatherDisplay:10.37,2013-05-05 22:52:00,
2013-05-06 08:57:00,62.9,51.4,30.17,SW,215,1.0,6.0,66,0.00,CLR,,0.00,WeatherDisplay:10.37,2013-05-05 22:57:00,
2013-05-06 09:02:00,63.3,51.7,30.17,SW,220,3.0,7.0,66,0.00,CLR,,0.00,WeatherDisplay:10.37,2013-05-05 23:02:00,
2013-05-06 09:07:00,63.7,51.7,30.17,SSW,212,3.0,9.0,65,0.00,CLR,,0.00,WeatherDisplay:10.37,2013-05-05 23:07:00,
2013-05-06 09:12:00,64.1,52.1,30.17,SW,214,2.0,8.0,65,0.00,CLR,,0.00,WeatherDisplay:10.37,2013-05-05 23:12:00,
2013-05-06 09:17:00,64.5,52.4,30.17,SW,223,5.0,8.0,65,0.00,CLR,,0.00,WeatherDisplay:10.37,2013-05-05 23:17:00,
2013-05-06 09:22:00,64.8,52.4,30.17,SW,229,1.0,7.0,64,0.00,CLR,,0.00,WeatherDisplay:10.37,2013-05-05 23:22:00,
2013-05-06 09:27:00,65.1,52.6,30.17,SW,234,2.0,7.0,64,0.00,CLR,,0.00,WeatherDisplay:10.37,2013-05-05 23:27:00,
2013-05-06 09:32:00,65.5,53.0,30.17,SW,228,1.0,7.0,64,0.00,CLR,,0.00,WeatherDisplay:10.37,2013-05-05 23:32:00,
2013-05-06 09:37:00,65.8,52.9,30.17,SW,230,2.0,7.0,63,0.00,CLR,,0.00,WeatherDisplay:10.37,2013-05-05 23:37:00,
2013-05-06 09:42:00,66.1,53.1,30.17,WSW,240,1.0,8.0,63,0.00,CLR,,0.00,WeatherDisplay:10.37,2013-05-05 23:42:00,
2013-05-06 09:47:00,66.5,53.1,30.17,WSW,238,7.0,10.0,62,0.00,CLR,,0.00,WeatherDisplay:10.37,2013-05-05 23:47:00,
2013-05-06 09:52:00,66.7,53.3,30.17,West,274,3.0,13.0,62,0.00,CLR,,0.00,WeatherDisplay:10.37,2013-05-05 23:52:00,
2013-05-06 09:57:00,66.7,53.3,30.17,NW,314,3.0,11.0,62,0.00,CLR,,0.00,WeatherDisplay:10.37,2013-05-05 23:57:00,
2013-05-06 10:02:00,66.9,53.5,30.17,NW,314,0.0,11.0,62,0.00,CLR,,0.00,WeatherDisplay:10.37,2013-05-06 00:02:00,
2013-05-06 10:07:00,67.1,53.6,30.17,WNW,290,3.0,5.0,62,0.00,CLR,,0.00,WeatherDisplay:10.37,2013-05-06 00:07:00,
2013-05-06 10:12:00,67.3,53.8,30.17,SW,234,2.0,7.0,62,0.00,CLR,,0.00,WeatherDisplay:10.37,2013-05-06 00:12:00,
2013-05-06 10:17:00,67.6,53.7,30.17,SW,216,3.0,8.0,61,0.00,CLR,,0.00,WeatherDisplay:10.37,2013-05-06 00:17:00,
2013-05-06 10:22:00,67.9,53.9,30.17,SW,216,2.0,10.0,61,0.00,CLR,,0.00,WeatherDisplay:10.37,2013-05-06 00:22:00,
2013-05-06 10:27:00,68.2,54.2,30.17,SW,230,3.0,13.0,61,0.00,CLR,,0.00,WeatherDisplay:10.37,2013-05-06 00:27:00,
2013-05-06 10:32:00,68.5,54.1,30.17,SW,230,3.0,9.0,60,0.00,CLR,,0.00,WeatherDisplay:10.37,2013-05-06 00:32:00,
2013-05-06 10:37:00,68.5,54.1,30.17,SW,224,6.0,12.0,60,0.00,CLR,,0.00,WeatherDisplay:10.37,2013-05-06 00:37:00,
2013-05-06 10:42:00,68.7,54.3,30.16,SW,220,0.0,7.0,60,0.00,CLR,,0.00,WeatherDisplay:10.37,2013-05-06 00:42:00,
2013-05-06 10:47:00,68.9,54.4,30.16,SSW,193,7.0,12.0,60,0.00,CLR,,0.00,WeatherDisplay:10.37,2013-05-06 00:47:00,
2013-05-06 10:52:00,69.1,54.1,30.16,SSW,208,3.0,12.0,59,0.00,CLR,,0.00,WeatherDisplay:10.37,2013-05-06 00:52:00,
2013-05-06 10:57:00,69.4,54.5,30.16,SW,218,3.0,7.0,59,0.00,CLR,,0.00,WeatherDisplay:10.37,2013-05-06 00:57:00,
2013-05-06 11:02:00,69.6,54.7,30.16,SW,226,7.0,10.0,59,0.00,CLR,,0.00,WeatherDisplay:10.37,2013-05-06 01:02:00,
2013-05-06 11:07:00,69.8,54.4,30.15,SW,216,5.0,14.0,58,0.00,CLR,,0.00,WeatherDisplay:10.37,2013-05-06 01:07:00,
2013-05-06 11:12:00,70.2,54.7,30.15,SSW,213,5.0,15.0,58,0.00,CLR,,0.00,WeatherDisplay:10.37,2013-05-06 01:12:00,
2013-05-06 11:17:00,70.3,54.4,30.15,SW,222,7.0,15.0,57,0.00,CLR,,0.00,WeatherDisplay:10.37,2013-05-06 01:17:00,
2013-05-06 11:22:00,70.5,54.5,30.15,SW,216,7.0,10.0,57,0.00,CLR,,0.00,WeatherDisplay:10.37,2013-05-06 01:22:00,
2013-05-06 11:27:00,70.5,54.5,30.14,SSW,207,2.0,9.0,57,0.00,CLR,,0.00,WeatherDisplay:10.37,2013-05-06 01:27:00,
2013-05-06 11:32:00,70.6,54.6,30.14,SSW,212,7.0,13.0,57,0.00,CLR,,0.00,WeatherDisplay:10.37,2013-05-06 01:32:00,
2013-05-06 11:37:00,70.9,54.9,30.14,SSW,207,1.0,10.0,57,0.00,CLR,,0.00,WeatherDisplay:10.37,2013-05-06 01:37:00,
2013-05-06 11:42:00,70.9,54.9,30.13,SSW,200,2.0,6.0,57,0.00,CLR,,0.00,WeatherDisplay:10.37,2013-05-06 01:42:00,
2013-05-06 11:47:00,71.0,55.0,30.14,SSW,213,1.0,6.0,57,0.00,CLR,,0.00,WeatherDisplay:10.37,2013-05-06 01:47:00,
2013-05-06 11:52:00,70.9,54.9,30.14,SW,217,7.0,10.0,57,0.00,CLR,,0.00,WeatherDisplay:10.37,2013-05-06 01:52:00,
2013-05-06 11:57:00,71.2,55.1,30.13,SW,222,1.0,12.0,57,0.00,CLR,,0.00,WeatherDisplay:10.37,2013-05-06 01:57:00,
2013-05-06 12:02:00,71.3,55.3,30.13,SSW,198,6.0,12.0,57,0.00,CLR,,0.00,WeatherDisplay:10.37,2013-05-06 02:02:00,
2013-05-06 12:07:00,71.5,55.5,30.13,SSW,208,3.0,7.0,57,0.00,CLR,,0.00,WeatherDisplay:10.37,2013-05-06 02:07:00,
2013-05-06 12:12:00,72.0,55.4,30.12,SW,229,5.0,12.0,56,0.00,CLR,,0.00,WeatherDisplay:10.37,2013-05-06 02:12:00,
2013-05-06 12:17:00,72.3,55.7,30.12,SW,221,5.0,8.0,56,0.00,CLR,,0.00,WeatherDisplay:10.37,2013-05-06 02:17:00,
2013-05-06 12:22:00,72.8,56.2,30.11,SW,216,2.0,8.0,56,0.00,CLR,,0.00,WeatherDisplay:10.37,2013-05-06 02:22:00,
2013-05-06 12:27:00,73.1,56.0,30.11,SW,217,6.0,20.0,55,0.00,CLR,,0.00,WeatherDisplay:10.37,2013-05-06 02:27:00,
2013-05-06 12:32:00,73.0,55.9,30.11,SW,216,3.0,12.0,55,0.00,CLR,,0.00,WeatherDisplay:10.37,2013-05-06 02:32:00,
2013-05-06 12:37:00,72.7,55.6,30.11,WSW,239,1.0,7.0,55,0.00,CLR,,0.00,WeatherDisplay:10.37,2013-05-06 02:37:00,
2013-05-06 12:42:00,72.5,55.4,30.11,WSW,256,6.0,12.0,55,0.00,CLR,,0.00,WeatherDisplay:10.37,2013-05-06 02:42:00,
2013-05-06 12:47:00,72.7,55.6,30.11,West,260,3.0,11.0,55,0.00,CLR,,0.00,WeatherDisplay:10.37,2013-05-06 02:47:00,
2013-05-06 12:52:00,72.7,55.6,30.11,West,277,6.0,12.0,55,0.00,CLR,,0.00,WeatherDisplay:10.37,2013-05-06 02:52:00,
2013-05-06 12:57:00,72.7,55.1,30.11,WNW,288,5.0,12.0,54,0.00,CLR,,0.00,WeatherDisplay:10.37,2013-05-06 02:57:00,
2013-05-06 13:02:00,73.0,55.4,30.11,WNW,290,1.0,9.0,54,0.00,CLR,,0.00,WeatherDisplay:10.37,2013-05-06 03:02:00,
2013-05-06 13:07:00,73.2,55.5,30.10,WNW,291,5.0,7.0,54,0.00,CLR,,0.00,WeatherDisplay:10.37,2013-05-06 03:07:00,
2013-05-06 13:12:00,73.2,55.6,30.10,WNW,301,2.0,6.0,54,0.00,CLR,,0.00,WeatherDisplay:10.37,2013-05-06 03:12:00,
2013-05-06 13:17:00,73.2,55.6,30.10,NW,304,5.0,6.0,54,0.00,CLR,,0.00,WeatherDisplay:10.37,2013-05-06 03:17:00,
2013-05-06 13:22:00,73.2,55.6,30.10,West,273,1.0,8.0,54,0.00,CLR,,0.00,WeatherDisplay:10.37,2013-05-06 03:22:00,
2013-05-06 13:27:00,73.2,55.6,30.10,WSW,256,6.0,9.0,54,0.00,CLR,,0.00,WeatherDisplay:10.37,2013-05-06 03:27:00,
2013-05-06 13:32:00,73.4,55.7,30.10,WSW,245,3.0,12.0,54,0.00,CLR,,0.00,WeatherDisplay:10.37,2013-05-06 03:32:00,
2013-05-06 13:37:00,73.6,55.9,30.09,WSW,249,5.0,6.0,54,0.00,CLR,,0.00,WeatherDisplay:10.37,2013-05-06 03:37:00,
2013-05-06 13:42:00,73.6,55.4,30.09,West,266,3.0,8.0,53,0.00,CLR,,0.00,WeatherDisplay:10.37,2013-05-06 03:42:00,
2013-05-06 13:47:00,73.2,55.1,30.10,WSW,243,5.0,9.0,53,0.00,CLR,,0.00,WeatherDisplay:10.37,2013-05-06 03:47:00,
2013-05-06 13:52:00,73.2,55.1,30.09,SW,217,2.0,4.0,53,0.00,CLR,,0.00,WeatherDisplay:10.37,2013-05-06 03:52:00,
2013-05-06 13:57:00,73.2,55.6,30.09,SW,221,1.0,7.0,54,0.00,CLR,,0.00,WeatherDisplay:10.37,2013-05-06 03:57:00,
2013-05-06 14:02:00,73.1,55.4,30.09,SSW,193,6.0,11.0,54,0.00,CLR,,0.00,WeatherDisplay:10.37,2013-05-06 04:02:00,
2013-05-06 14:07:00,73.0,55.4,30.09,SSW,199,5.0,8.0,54,0.00,CLR,,0.00,WeatherDisplay:10.37,2013-05-06 04:07:00,
2013-05-06 14:12:00,72.7,55.1,30.09,SW,232,0.0,5.0,54,0.00,CLR,,0.00,WeatherDisplay:10.37,2013-05-06 04:12:00,
2013-05-06 14:17:00,72.6,55.0,30.09,SW,229,1.0,9.0,54,0.00,CLR,,0.00,WeatherDisplay:10.37,2013-05-06 04:17:00,
2013-05-06 14:22:00,72.5,54.9,30.09,SSW,205,1.0,3.0,54,0.00,CLR,,0.00,WeatherDisplay:10.37,2013-05-06 04:22:00,
2013-05-06 14:27:00,72.4,54.8,30.10,SW,234,5.0,7.0,54,0.00,CLR,,0.00,WeatherDisplay:10.37,2013-05-06 04:27:00,
2013-05-06 14:32:00,72.2,55.1,30.10,SW,223,2.0,7.0,55,0.00,CLR,,0.00,WeatherDisplay:10.37,2013-05-06 04:32:00,
2013-05-06 14:37:00,71.7,54.6,30.09,SW,229,2.0,9.0,55,0.00,CLR,,0.00,WeatherDisplay:10.37,2013-05-06 04:37:00,
2013-05-06 14:42:00,71.1,54.6,30.09,SSW,211,1.0,9.0,56,0.00,CLR,,0.00,WeatherDisplay:10.37,2013-05-06 04:42:00,
2013-05-06 14:47:00,70.6,54.6,30.09,SSW,210,1.0,6.0,57,0.00,CLR,,0.00,WeatherDisplay:10.37,2013-05-06 04:47:00,
2013-05-06 14:52:00,70.3,54.9,30.09,WSW,237,0.0,5.0,58,0.00,CLR,,0.00,WeatherDisplay:10.37,2013-05-06 04:52:00,
2013-05-06 14:57:00,70.2,54.8,30.09,SSW,195,1.0,9.0,58,0.00,CLR,,0.00,WeatherDisplay:10.37,2013-05-06 04:57:00,
2013-05-06 15:02:00,70.2,54.7,30.09,South,186,3.0,9.0,58,0.00,CLR,,0.00,WeatherDisplay:10.37,2013-05-06 05:02:00,
2013-05-06 15:07:00,70.0,54.5,30.09,SSW,211,3.0,8.0,58,0.00,CLR,,0.00,WeatherDisplay:10.37,2013-05-06 05:07:00,
2013-05-06 15:12:00,69.8,54.4,30.09,SSW,213,1.0,6.0,58,0.00,CLR,,0.00,WeatherDisplay:10.37,2013-05-06 05:12:00,
2013-05-06 15:17:00,69.8,54.4,30.09,WSW,239,6.0,11.0,58,0.00,CLR,,0.00,WeatherDisplay:10.37,2013-05-06 05:17:00,
2013-05-06 15:22:00,69.8,54.3,30.09,WSW,246,0.0,5.0,58,0.00,CLR,,0.00,WeatherDisplay:10.37,2013-05-06 05:22:00,
2013-05-06 15:27:00,69.6,54.2,30.09,WSW,258,2.0,13.0,58,0.00,CLR,,0.00,WeatherDisplay:10.37,2013-05-06 05:27:00,
2013-05-06 15:32:00,69.6,54.7,30.10,WSW,253,3.0,10.0,59,0.00,CLR,,0.00,WeatherDisplay:10.37,2013-05-06 05:32:00,
2013-05-06 15:37:00,69.6,54.7,30.09,SW,224,3.0,11.0,59,0.00,CLR,,0.00,WeatherDisplay:10.37,2013-05-06 05:37:00,
2013-05-06 15:42:00,69.6,55.1,30.09,SW,218,2.0,7.0,60,0.00,CLR,,0.00,WeatherDisplay:10.37,2013-05-06 05:42:00,
2013-05-06 15:47:00,69.5,55.0,30.10,SSW,203,5.0,8.0,60,0.00,CLR,,0.00,WeatherDisplay:10.37,2013-05-06 05:47:00,
2013-05-06 15:52:00,69.2,54.3,30.09,SW,216,2.0,7.0,59,0.00,CLR,,0.00,WeatherDisplay:10.37,2013-05-06 05:52:00,
2013-05-06 15:57:00,69.1,54.1,30.09,SW,230,1.0,5.0,59,0.00,CLR,,0.00,WeatherDisplay:10.37,2013-05-06 05:57:00,
2013-05-06 16:02:00,68.7,54.3,30.09,SW,224,1.0,6.0,60,0.00,CLR,,0.00,WeatherDisplay:10.37,2013-05-06 06:02:00,
2013-05-06 16:07:00,68.5,54.1,30.09,SW,219,1.0,4.0,60,0.00,CLR,,0.00,WeatherDisplay:10.37,2013-05-06 06:07:00,
2013-05-06 16:12:00,68.2,53.8,30.09,SW,220,0.0,7.0,60,0.00,CLR,,0.00,WeatherDisplay:10.37,2013-05-06 06:12:00,
2013-05-06 16:17:00,67.8,53.4,30.09,SW,223,1.0,7.0,60,0.00,CLR,,0.00,WeatherDisplay:10.37,2013-05-06 06:17:00,
2013-05-06 16:22:00,67.6,53.7,30.09,SW,235,2.0,8.0,61,0.00,CLR,,0.00,WeatherDisplay:10.37,2013-05-06 06:22:00,
2013-05-06 16:27:00,67.3,53.4,30.10,SW,230,2.0,6.0,61,0.00,CLR,,0.00,WeatherDisplay:10.37,2013-05-06 06:27:00,
2013-05-06 16:32:00,67.2,53.7,30.10,SW,227,0.0,7.0,62,0.00,CLR,,0.00,WeatherDisplay:10.37,2013-05-06 06:32:00,
2013-05-06 16:37:00,66.9,53.5,30.09,SW,234,3.0,7.0,62,0.00,CLR,,0.00,WeatherDisplay:10.37,2013-05-06 06:37:00,
2013-05-06 16:42:00,66.7,53.7,30.10,SSW,206,0.0,5.0,63,0.00,CLR,,0.00,WeatherDisplay:10.37,2013-05-06 06:42:00,
2013-05-06 16:47:00,66.7,53.7,30.10,South,171,0.0,8.0,63,0.00,CLR,,0.00,WeatherDisplay:10.37,2013-05-06 06:47:00,
2013-05-06 16:52:00,66.6,54.0,30.10,South,179,1.0,5.0,64,0.00,CLR,,0.00,WeatherDisplay:10.37,2013-05-06 06:52:00,
2013-05-06 16:57:00,66.5,53.9,30.11,South,174,2.0,8.0,64,0.00,CLR,,0.00,WeatherDisplay:10.37,2013-05-06 06:57:00,
2013-05-06 17:02:00,66.4,53.8,30.11,SW,225,0.0,4.0,64,0.00,CLR,,0.00,WeatherDisplay:10.37,2013-05-06 07:02:00,
2013-05-06 17:07:00,66.1,54.0,30.11,SW,218,0.0,6.0,65,0.00,CLR,,0.00,WeatherDisplay:10.37,2013-05-06 07:07:00,
2013-05-06 17:12:00,66.0,54.3,30.11,SSW,207,0.0,6.0,66,0.00,CLR,,0.00,WeatherDisplay:10.37,2013-05-06 07:12:00,
2013-05-06 17:17:00,65.8,54.6,30.11,SSW,199,1.0,6.0,67,0.00,CLR,,0.00,WeatherDisplay:10.37,2013-05-06 07:17:00,
2013-05-06 17:22:00,65.5,54.6,30.11,South,183,0.0,5.0,68,0.00,CLR,,0.00,WeatherDisplay:10.37,2013-05-06 07:22:00,
2013-05-06 17:27:00,65.1,54.3,30.11,SSW,198,0.0,6.0,68,0.00,CLR,,0.00,WeatherDisplay:10.37,2013-05-06 07:27:00,
2013-05-06 17:32:00,64.9,54.1,30.11,SSW,204,0.0,0.0,68,0.00,CLR,,0.00,WeatherDisplay:10.37,2013-05-06 07:32:00,
2013-05-06 17:37:00,64.8,53.9,30.11,SSW,203,2.0,8.0,68,0.00,CLR,,0.00,WeatherDisplay:10.37,2013-05-06 07:37:00,
2013-05-06 17:42:00,64.6,53.8,30.11,SSW,198,3.0,8.0,68,0.00,CLR,,0.00,WeatherDisplay:10.37,2013-05-06 07:42:00,
2013-05-06 17:47:00,64.2,53.4,30.12,SSW,209,3.0,7.0,68,0.00,CLR,,0.00,WeatherDisplay:10.37,2013-05-06 07:47:00,
2013-05-06 17:52:00,64.2,53.8,30.13,SSW,208,3.0,8.0,69,0.00,CLR,,0.00,WeatherDisplay:10.37,2013-05-06 07:52:00,
2013-05-06 17:57:00,64.0,53.7,30.13,SSW,194,2.0,8.0,69,0.00,CLR,,0.00,WeatherDisplay:10.37,2013-05-06 07:57:00,
2013-05-06 18:02:00,64.0,54.0,30.13,SSW,199,1.0,5.0,70,0.00,CLR,,0.00,WeatherDisplay:10.37,2013-05-06 08:02:00,
2013-05-06 18:07:00,63.7,54.1,30.14,SSW,195,2.0,7.0,71,0.00,CLR,,0.00,WeatherDisplay:10.37,2013-05-06 08:07:00,
2013-05-06 18:12:00,63.5,53.9,30.13,SSW,200,0.0,8.0,71,0.00,CLR,,0.00,WeatherDisplay:10.37,2013-05-06 08:12:00,
2013-05-06 18:17:00,63.3,54.1,30.14,SW,217,5.0,8.0,72,0.00,CLR,,0.00,WeatherDisplay:10.37,2013-05-06 08:17:00,
2013-05-06 18:22:00,63.3,54.1,30.14,SW,215,1.0,7.0,72,0.00,CLR,,0.00,WeatherDisplay:10.37,2013-05-06 08:22:00,
2013-05-06 18:27:00,63.3,54.1,30.13,SW,217,2.0,6.0,72,0.00,CLR,,0.00,WeatherDisplay:10.37,2013-05-06 08:27:00,
2013-05-06 18:32:00,63.1,54.0,30.14,SW,219,0.0,4.0,72,0.00,CLR,,0.00,WeatherDisplay:10.37,2013-05-06 08:32:00,
2013-05-06 18:37:00,63.1,54.0,30.13,SW,227,1.0,5.0,72,0.00,CLR,,0.00,WeatherDisplay:10.37,2013-05-06 08:37:00,
2013-05-06 18:42:00,63.1,54.0,30.13,SW,232,3.0,7.0,72,0.00,CLR,,0.00,WeatherDisplay:10.37,2013-05-06 08:42:00,
2013-05-06 18:47:00,63.1,54.0,30.13,SW,221,5.0,7.0,72,0.00,CLR,,0.00,WeatherDisplay:10.37,2013-05-06 08:47:00,
2013-05-06 18:52:00,63.1,54.0,30.14,SW,221,2.0,7.0,72,0.00,CLR,,0.00,WeatherDisplay:10.37,2013-05-06 08:52:00,
2013-05-06 18:57:00,63.1,54.0,30.14,SW,222,1.0,6.0,72,0.00,CLR,,0.00,WeatherDisplay:10.37,2013-05-06 08:57:00,
2013-05-06 19:02:00,63.1,54.0,30.14,SW,224,2.0,5.0,72,0.00,CLR,,0.00,WeatherDisplay:10.37,2013-05-06 09:02:00,
2013-05-06 19:07:00,63.1,54.0,30.14,SW,218,0.0,5.0,72,0.00,CLR,,0.00,WeatherDisplay:10.37,2013-05-06 09:07:00,
2013-05-06 19:12:00,63.1,54.0,30.14,SSW,213,0.0,4.0,72,0.00,CLR,,0.00,WeatherDisplay:10.37,2013-05-06 09:12:00,
2013-05-06 19:22:00,63.0,53.8,30.15,SSW,212,1.0,5.0,72,0.00,CLR,,0.00,WeatherDisplay:10.37,2013-05-06 09:22:00,
2013-05-06 19:27:00,63.0,53.8,30.14,SW,214,1.0,5.0,72,0.00,CLR,,0.00,WeatherDisplay:10.37,2013-05-06 09:27:00,
2013-05-06 19:32:00,62.8,53.6,30.14,SW,214,2.0,6.0,72,0.00,CLR,,0.00,WeatherDisplay:10.37,2013-05-06 09:32:00,
2013-05-06 19:37:00,62.8,53.6,30.14,SW,218,1.0,4.0,72,0.00,CLR,,0.00,WeatherDisplay:10.37,2013-05-06 09:37:00,
2013-05-06 19:42:00,62.6,53.4,30.14,SW,218,2.0,6.0,72,0.00,CLR,,0.00,WeatherDisplay:10.37,2013-05-06 09:42:00,
2013-05-06 19:47:00,62.4,53.3,30.14,SW,222,2.0,8.0,72,0.00,CLR,,0.00,WeatherDisplay:10.37,2013-05-06 09:47:00,
2013-05-06 19:52:00,62.4,53.3,30.14,SW,217,2.0,6.0,72,0.00,CLR,,0.00,WeatherDisplay:10.37,2013-05-06 09:52:00,
2013-05-06 19:57:00,62.4,53.2,30.13,SW,215,3.0,7.0,72,0.00,CLR,,0.00,WeatherDisplay:10.37,2013-05-06 09:57:00,
2013-05-06 20:02:00,62.2,53.1,30.14,SW,216,2.0,6.0,72,0.00,CLR,,0.00,WeatherDisplay:10.37,2013-05-06 10:02:00,
2013-05-06 20:07:00,62.2,53.0,30.14,SSW,210,3.0,7.0,72,0.00,CLR,,0.00,WeatherDisplay:10.37,2013-05-06 10:07:00,
2013-05-06 20:12:00,62.1,52.9,30.14,SSW,207,5.0,10.0,72,0.00,CLR,,0.00,WeatherDisplay:10.37,2013-05-06 10:12:00,
2013-05-06 20:17:00,61.9,52.8,30.14,SSW,208,3.0,8.0,72,0.00,CLR,,0.00,WeatherDisplay:10.37,2013-05-06 10:17:00,
2013-05-06 20:22:00,61.7,53.0,30.14,SSW,213,5.0,7.0,73,0.00,CLR,,0.00,WeatherDisplay:10.37,2013-05-06 10:22:00,
2013-05-06 20:27:00,61.7,53.0,30.14,SSW,212,5.0,7.0,73,0.00,CLR,,0.00,WeatherDisplay:10.37,2013-05-06 10:27:00,
2013-05-06 20:32:00,61.7,53.0,30.14,SSW,213,5.0,8.0,73,0.00,CLR,,0.00,WeatherDisplay:10.37,2013-05-06 10:32:00,
2013-05-06 20:37:00,61.7,53.0,30.14,SW,216,3.0,7.0,73,0.00,CLR,,0.00,WeatherDisplay:10.37,2013-05-06 10:37:00,
2013-05-06 20:42:00,61.7,53.3,30.15,SW,220,2.0,8.0,74,0.00,CLR,,0.00,WeatherDisplay:10.37,2013-05-06 10:42:00,
2013-05-06 20:47:00,61.7,53.3,30.15,SW,215,5.0,9.0,74,0.00,CLR,,0.00,WeatherDisplay:10.37,2013-05-06 10:47:00,
2013-05-06 20:52:00,61.7,53.3,30.15,SSW,207,3.0,6.0,74,0.00,CLR,,0.00,WeatherDisplay:10.37,2013-05-06 10:52:00,
2013-05-06 20:57:00,61.6,53.2,30.15,SSW,204,0.0,5.0,74,0.00,CLR,,0.00,WeatherDisplay:10.37,2013-05-06 10:57:00,
2013-05-06 21:02:00,61.5,53.2,30.16,South,177,0.0,0.0,74,0.00,CLR,,0.00,WeatherDisplay:10.37,2013-05-06 11:02:00,
2013-05-06 21:07:00,61.5,53.2,30.16,ENE,74,0.0,4.0,74,0.00,CLR,,0.00,WeatherDisplay:10.37,2013-05-06 11:07:00,
2013-05-06 21:12:00,61.5,53.2,30.16,NNE,30,0.0,3.0,74,0.00,CLR,,0.00,WeatherDisplay:10.37,2013-05-06 11:12:00,
2013-05-06 21:22:00,61.5,53.5,30.16,SSW,208,0.0,0.0,75,0.00,CLR,,0.00,WeatherDisplay:10.37,2013-05-06 11:22:00,
2013-05-06 21:27:00,61.5,53.5,30.16,SW,231,0.0,0.0,75,0.00,CLR,,0.00,WeatherDisplay:10.37,2013-05-06 11:27:00,
2013-05-06 21:32:00,61.5,53.5,30.16,WSW,242,0.0,0.0,75,0.00,CLR,,0.00,WeatherDisplay:10.37,2013-05-06 11:32:00,
2013-05-06 21:42:00,61.5,53.5,30.16,SW,233,0.0,0.0,75,0.00,CLR,,0.00,WeatherDisplay:10.37,2013-05-06 11:42:00,
2013-05-06 21:47:00,61.5,53.5,30.16,SW,229,0.0,0.0,75,0.00,CLR,,0.00,WeatherDisplay:10.37,2013-05-06 11:47:00,
2013-05-06 21:52:00,61.3,53.0,30.16,SSW,207,1.0,3.0,74,0.00,CLR,,0.00,WeatherDisplay:10.37,2013-05-06 11:52:00,
2013-05-06 21:57:00,61.2,52.8,30.16,SSW,204,0.0,6.0,74,0.00,CLR,,0.00,WeatherDisplay:10.37,2013-05-06 11:57:00,
2013-05-06 22:02:00,61.0,53.0,30.16,SSW,207,0.0,3.0,75,0.00,CLR,,0.00,WeatherDisplay:10.37,2013-05-06 12:02:00,
2013-05-06 22:07:00,61.0,53.0,30.16,SW,216,0.0,4.0,75,0.00,CLR,,0.00,WeatherDisplay:10.37,2013-05-06 12:07:00,
2013-05-06 22:12:00,60.6,52.6,30.16,SW,218,1.0,3.0,75,0.00,CLR,,0.00,WeatherDisplay:10.37,2013-05-06 12:12:00,
2013-05-06 22:17:00,60.6,52.6,30.16,SSW,200,0.0,4.0,75,0.00,CLR,,0.00,WeatherDisplay:10.37,2013-05-06 12:17:00,
2013-05-06 22:22:00,60.6,52.6,30.16,SE,145,0.0,2.0,75,0.00,CLR,,0.00,WeatherDisplay:10.37,2013-05-06 12:22:00,
2013-05-06 22:27:00,60.4,52.8,30.16,South,186,2.0,5.0,76,0.00,CLR,,0.00,WeatherDisplay:10.37,2013-05-06 12:27:00,
2013-05-06 22:32:00,60.4,52.8,30.15,SW,216,2.0,7.0,76,0.00,CLR,,0.00,WeatherDisplay:10.37,2013-05-06 12:32:00,
2013-05-06 22:37:00,60.1,52.5,30.15,SW,221,5.0,8.0,76,0.00,CLR,,0.00,WeatherDisplay:10.37,2013-05-06 12:37:00,
2013-05-06 22:42:00,60.1,52.5,30.16,SW,215,3.0,7.0,76,0.00,CLR,,0.00,WeatherDisplay:10.37,2013-05-06 12:42:00,
2013-05-06 22:47:00,60.1,52.5,30.16,SSW,210,3.0,9.0,76,0.00,CLR,,0.00,WeatherDisplay:10.37,2013-05-06 12:47:00,
2013-05-06 22:52:00,60.1,52.5,30.15,SSW,193,5.0,8.0,76,0.00,CLR,,0.00,WeatherDisplay:10.37,2013-05-06 12:52:00,
2013-05-06 22:57:00,60.1,52.5,30.15,SSW,199,5.0,8.0,76,0.00,CLR,,0.00,WeatherDisplay:10.37,2013-05-06 12:57:00,
2013-05-06 23:02:00,60.1,52.5,30.15,SSW,207,3.0,9.0,76,0.00,CLR,,0.00,WeatherDisplay:10.37,2013-05-06 13:02:00,
2013-05-06 23:07:00,60.1,52.5,30.16,SSW,208,3.0,9.0,76,0.00,CLR,,0.00,WeatherDisplay:10.37,2013-05-06 13:07:00,
2013-05-06 23:12:00,60.1,52.5,30.15,SW,218,1.0,7.0,76,0.00,CLR,,0.00,WeatherDisplay:10.37,2013-05-06 13:12:00,
2013-05-06 23:17:00,60.1,52.5,30.16,SW,216,0.0,6.0,76,0.00,CLR,,0.00,WeatherDisplay:10.37,2013-05-06 13:17:00,
2013-05-06 23:22:00,59.9,52.4,30.15,SSW,210,2.0,6.0,76,0.00,CLR,,0.00,WeatherDisplay:10.37,2013-05-06 13:22:00,
2013-05-06 23:27:00,59.9,52.3,30.16,SW,215,1.0,4.0,76,0.00,CLR,,0.00,WeatherDisplay:10.37,2013-05-06 13:27:00,
2013-05-06 23:32:00,59.9,52.3,30.16,SW,216,0.0,2.0,76,0.00,CLR,,0.00,WeatherDisplay:10.37,2013-05-06 13:32:00,
2013-05-06 23:37:00,59.7,52.1,30.16,SW,217,0.0,2.0,76,0.00,CLR,,0.00,WeatherDisplay:10.37,2013-05-06 13:37:00,
2013-05-06 23:42:00,59.7,52.5,30.16,South,189,0.0,2.0,77,0.00,CLR,,0.00,WeatherDisplay:10.37,2013-05-06 13:42:00,
2013-05-06 23:47:00,59.6,52.4,30.15,NE,48,0.0,0.0,77,0.00,CLR,,0.00,WeatherDisplay:10.37,2013-05-06 13:47:00,
2013-05-06 23:52:00,59.5,52.3,30.16,NW,322,0.0,3.0,77,0.00,CLR,,0.00,WeatherDisplay:10.37,2013-05-06 13:52:00,
2013-05-06 23:57:00,59.5,52.0,30.15,SW,226,0.0,4.0,76,0.00,CLR,,0.00,WeatherDisplay:10.37,2013-05-06 13:57:00,